This demonstration page uses our WeatherBlox Daily Observations layout. Learn more.

Left ArrowRight Arrow

34.02893, -84.19858

Hourly Observations for November 23, 2022

Temp ( °F °C ) Dew Point ( °F °C ) Humidity (%) Winds ( mph kmh ) Pressure ( in mb ) Visibility ( mi km ) Precip ( " mm )
12:53 am 00:53 Clear 38 3.3 32 0 79 79 Calm 30.27 1025 10 16 0.00 0.00
1:53 am 01:53 Clear 39 3.9 33 0.6 79 79 Calm 30.26 1025 10 16 0.00 0.00
2:53 am 02:53 Clear 37 2.8 33 0.6 85 85 Calm 30.25 1024 10 16 0.00 0.00
3:53 am 03:53 Clear 37 2.8 32 0 82 82 NNE 3 6 30.24 1024 10 16 0.00 0.00
4:53 am 04:53 Clear 36 2.2 33 0.6 89 89 Calm 30.25 1025 10 16 0.00 0.00
5:53 am 05:53 Clear 34 1.1 32 0 92 92 Calm 30.26 1025 10 16 0.00 0.00
6:53 am 06:53 Clear 33 0.6 30 -1.1 88 88 Calm 30.27 1025 10 16 0.00 0.00
7:53 am 07:53 Sunny 36 2.2 33 0.6 89 89 Calm 30.29 1026 10 16 0.00 0.00
8:53 am 08:53 Sunny 46 7.8 36 2.2 68 68 Calm 30.27 1025 10 16 0.00 0.00
9:53 am 09:53 Sunny 54 12.2 34 1.1 47 47 Calm 30.27 1025 10 16 0.00 0.00
10:53 am 10:53 Sunny 61 16.1 33 0.6 35 35 NNW 3 6 30.26 1025 10 16 0.00 0.00
11:53 am 11:53 Sunny 65 18.3 35 1.7 33 33 NNE 3 6 30.24 1024 10 16 0.00 0.00
12:53 pm 12:53 Sunny 68 20 40 4.4 36 36 N 3 6 30.21 1023 10 16 0.00 0.00
1:53 pm 13:53 Sunny 68 20 41 5 37 37 Calm 30.18 1022 10 16 0.00 0.00
2:53 pm 14:53 Sunny 68 20 39 3.9 35 35 ESE 5 7 30.16 1022 10 16 0.00 0.00
3:53 pm 15:53 Mostly Sunny 70 21.1 38 3.3 31 31 Calm 30.15 1021 10 16 0.00 0.00
4:53 pm 16:53 Sunny 67 19.4 38 3.3 34 34 Calm 30.16 1021 10 16 0.00 0.00
5:53 pm 17:53 Clear 59 15 39 3.9 47 47 Calm 30.18 1022 10 16 0.00 0.00
6:53 pm 18:53 Cloudy 56 13.3 40 4.4 55 55 Calm 30.20 1023 10 16 0.00 0.00
7:53 pm 19:53 Clear 51 10.6 40 4.4 65 65 Calm 30.22 1023 8 13 0.00 0.00
8:53 pm 20:53 Mostly Clear 51 10.6 40 4.4 65 65 Calm 30.22 1024 10 16 0.00 0.00
9:53 pm 21:53 Cloudy 49 9.4 41 5 74 74 Calm 30.23 1024 9 14 0.00 0.00
10:53 pm 22:53 Mostly Cloudy 48 8.9 41 5 76 76 Calm 30.23 1024 9 14 0.00 0.00
11:53 pm 23:53 Cloudy 48 8.9 41 5 76 76 Calm 30.23 1024 9 14 0.00 0.00

Powered by AerisWeather